GTI8779 VHHH-RPLC

Flight info

Callsign GTI8779
Flight time 1h 20m
Altitude 39000
Route DALOL V642 NOMAN A461 SANRO W4 MALIB MALIB5R
Aircraft B748/H-V/N

Departure

Time 2026-05-04 00:26
Airport Hong Kong International Airport (VHHH)

Arrival

Time 2026-05-04 01:47
Airport Clark International Airport / Clark Air Base (RPLC)
Time Latitude Longitude Altitude Speed Heading
2026-05-04 00:11 22.29655 113.91944 43 ft 0 kts 71°
2026-05-04 00:15 22.29653 113.91938 42 ft 2 kts 70°
2026-05-04 00:15 22.29647 113.91922 40 ft 2 kts 68°
2026-05-04 00:16 22.29641 113.91905 41 ft 2 kts 65°
2026-05-04 00:16 22.29633 113.91889 40 ft 2 kts 53°
2026-05-04 00:16 22.29622 113.91876 39 ft 2 kts 356°
2026-05-04 00:16 22.29611 113.91878 42 ft 1 kts 344°
2026-05-04 00:17 22.29610 113.91878 42 ft 0 kts 344°
2026-05-04 00:20 22.29635 113.91870 40 ft 6 kts 341°
2026-05-04 00:20 22.29672 113.91856 43 ft 5 kts 340°
2026-05-04 00:20 22.29709 113.91841 43 ft 7 kts 340°
2026-05-04 00:20 22.29768 113.91818 43 ft 10 kts 341°
2026-05-04 00:21 22.29828 113.91794 43 ft 10 kts 334°
2026-05-04 00:21 22.29892 113.91753 43 ft 11 kts 333°
2026-05-04 00:21 22.29967 113.91723 43 ft 11 kts 341°
2026-05-04 00:21 22.30032 113.91697 43 ft 8 kts 330°
2026-05-04 00:22 22.30042 113.91667 43 ft 4 kts 268°
2026-05-04 00:22 22.30025 113.91613 43 ft 11 kts 249°
2026-05-04 00:22 22.29989 113.91505 42 ft 19 kts 251°
2026-05-04 00:22 22.29938 113.91346 44 ft 26 kts 251°
2026-05-04 00:23 22.29878 113.91161 44 ft 26 kts 251°
2026-05-04 00:23 22.29818 113.90975 44 ft 26 kts 251°
2026-05-04 00:23 22.29758 113.90788 43 ft 27 kts 251°
2026-05-04 00:23 22.29696 113.90600 43 ft 26 kts 251°
2026-05-04 00:24 22.29638 113.90419 43 ft 25 kts 250°
2026-05-04 00:24 22.29582 113.90247 43 ft 23 kts 251°
2026-05-04 00:24 22.29532 113.90091 43 ft 21 kts 251°
2026-05-04 00:24 22.29490 113.89950 43 ft 18 kts 258°
2026-05-04 00:25 22.29527 113.89854 43 ft 12 kts 328°
2026-05-04 00:25 22.29597 113.89830 44 ft 9 kts
2026-05-04 00:25 22.29645 113.89876 41 ft 12 kts 66°
2026-05-04 00:25 22.29695 113.90024 43 ft 40 kts 70°
2026-05-04 00:26 22.29849 113.90502 42 ft 96 kts 70°
2026-05-04 00:26 22.30144 113.91413 43 ft 160 kts 70°
2026-05-04 00:26 22.30410 113.92251 213 ft 190 kts 71°
2026-05-04 00:26 22.30850 113.93677 982 ft 206 kts 70°
2026-05-04 00:27 22.31281 113.95133 2098 ft 201 kts 71°
2026-05-04 00:27 22.31714 113.96596 3103 ft 210 kts 70°
2026-05-04 00:27 22.32220 113.98136 3919 ft 226 kts 68°
2026-05-04 00:27 22.32806 113.99767 4851 ft 234 kts 68°
2026-05-04 00:28 22.33328 114.01455 5821 ft 243 kts 80°
2026-05-04 00:28 22.33170 114.03271 6809 ft 246 kts 105°
2026-05-04 00:28 22.32793 114.05114 7606 ft 255 kts 103°
2026-05-04 00:28 22.32069 114.06863 8384 ft 261 kts 132°
2026-05-04 00:29 22.30621 114.08048 9015 ft 268 kts 162°
2026-05-04 00:29 22.28788 114.08460 9809 ft 269 kts 179°
2026-05-04 00:29 22.26862 114.08675 10357 ft 291 kts 181°
2026-05-04 00:29 22.24760 114.08788 10780 ft 313 kts 185°
2026-05-04 00:30 22.22515 114.08749 11238 ft 334 kts 187°
2026-05-04 00:30 22.20154 114.08651 11647 ft 355 kts 186°
2026-05-04 00:30 22.17621 114.09043 12048 ft 385 kts 165°
2026-05-04 00:30 22.15197 114.10472 12514 ft 411 kts 145°
2026-05-04 00:31 22.13215 114.12799 12997 ft 434 kts 127°
2026-05-04 00:31 22.11893 114.15787 13500 ft 452 kts 110°
2026-05-04 00:31 22.11062 114.19104 14004 ft 462 kts 110°
2026-05-04 00:31 22.09750 114.22287 14547 ft 465 kts 121°
2026-05-04 00:32 22.07894 114.25139 15147 ft 465 kts 134°
2026-05-04 00:32 22.05714 114.27652 15884 ft 464 kts 137°
2026-05-04 00:32 22.03311 114.29936 16676 ft 458 kts 147°
2026-05-04 00:32 22.00708 114.31931 17356 ft 460 kts 149°
2026-05-04 00:33 21.98055 114.33879 17980 ft 463 kts 150°
2026-05-04 00:33 21.92775 114.37981 18997 ft 473 kts 146°
2026-05-04 00:33 21.90134 114.40130 19422 ft 478 kts 147°
2026-05-04 00:34 21.87405 114.42234 19891 ft 490 kts 147°
2026-05-04 00:34 21.84886 114.44813 20348 ft 510 kts 134°
2026-05-04 00:34 21.82931 114.47928 21005 ft 501 kts 121°
2026-05-04 00:34 21.81696 114.51456 21723 ft 509 kts 106°
2026-05-04 00:35 21.81256 114.55244 22489 ft 512 kts 92°
2026-05-04 00:35 21.81078 114.59089 23251 ft 518 kts 100°
2026-05-04 00:35 21.80223 114.62811 23962 ft 522 kts 109°
2026-05-04 00:35 21.79121 114.66556 24639 ft 528 kts 111°
2026-05-04 00:36 21.77993 114.70350 25310 ft 535 kts 109°
2026-05-04 00:36 21.77020 114.74251 26009 ft 542 kts 106°
2026-05-04 00:36 21.76071 114.78189 26719 ft 546 kts 108°
2026-05-04 00:36 21.75000 114.82117 27440 ft 550 kts 109°
2026-05-04 00:37 21.73924 114.86081 28184 ft 554 kts 109°
2026-05-04 00:37 21.72508 114.89927 28851 ft 553 kts 122°
2026-05-04 00:37 21.70300 114.93284 29497 ft 550 kts 136°
2026-05-04 00:37 21.67462 114.96009 30181 ft 546 kts 147°
2026-05-04 00:38 21.64447 114.98527 30754 ft 553 kts 142°
2026-05-04 00:38 21.61874 115.01668 31353 ft 565 kts 129°
2026-05-04 00:38 21.59656 115.05162 32104 ft 566 kts 127°
2026-05-04 00:38 21.57453 115.08585 32959 ft 563 kts 129°
2026-05-04 00:39 21.55055 115.11892 33840 ft 559 kts 133°
2026-05-04 00:39 21.52625 115.15135 34683 ft 556 kts 131°
2026-05-04 00:39 21.50329 115.18459 35532 ft 553 kts 129°
2026-05-04 00:39 21.48046 115.21766 36416 ft 547 kts 131°
2026-05-04 00:40 21.45702 115.24969 37337 ft 542 kts 132°
2026-05-04 00:40 21.43397 115.28141 38294 ft 536 kts 131°
2026-05-04 00:40 21.41164 115.31325 39027 ft 534 kts 130°
2026-05-04 00:41 21.36603 115.37768 39029 ft 548 kts 131°
2026-05-04 00:41 21.31961 115.44230 39026 ft 549 kts 131°
2026-05-04 00:42 21.27318 115.50702 39023 ft 546 kts 131°
2026-05-04 00:42 21.22689 115.57167 39022 ft 546 kts 131°
2026-05-04 00:43 21.18063 115.63625 39027 ft 546 kts 131°
2026-05-04 00:43 21.13429 115.70085 39023 ft 546 kts 131°
2026-05-04 00:44 21.08797 115.76536 39023 ft 546 kts 131°
2026-05-04 00:44 21.04152 115.82994 39014 ft 546 kts 131°
2026-05-04 00:45 20.99541 115.89400 39015 ft 546 kts 131°
2026-05-04 00:45 20.94897 115.95844 39021 ft 546 kts 131°
2026-05-04 00:46 20.90255 116.02277 39013 ft 546 kts 131°
2026-05-04 00:46 20.85543 116.08643 39005 ft 542 kts 139°
2026-05-04 00:47 20.79771 116.13688 39043 ft 532 kts 153°
2026-05-04 00:47 20.73427 116.17650 39026 ft 531 kts 154°
2026-05-04 00:48 20.67194 116.21928 39007 ft 533 kts 150°
2026-05-04 00:48 20.60921 116.26119 39009 ft 531 kts 153°
2026-05-04 00:49 20.54688 116.30378 39015 ft 532 kts 151°
2026-05-04 00:49 20.48433 116.34619 39008 ft 531 kts 152°
2026-05-04 00:50 20.42171 116.38813 39005 ft 531 kts 152°
2026-05-04 00:50 20.35904 116.43018 39013 ft 531 kts 152°
2026-05-04 00:51 20.29697 116.47195 39003 ft 531 kts 151°
2026-05-04 00:51 20.23457 116.51397 39000 ft 530 kts 151°
2026-05-04 00:52 20.17217 116.55593 39004 ft 530 kts 151°
2026-05-04 00:52 20.10988 116.59776 38998 ft 529 kts 151°
2026-05-04 00:53 20.04762 116.63953 39005 ft 528 kts 151°
2026-05-04 00:53 19.98843 116.68598 39028 ft 533 kts 140°
2026-05-04 00:54 19.93708 116.74336 39006 ft 537 kts 133°
2026-05-04 00:54 19.88800 116.80232 39002 ft 535 kts 136°
2026-05-04 00:55 19.83712 116.86017 38997 ft 536 kts 134°
2026-05-04 00:55 19.78719 116.91897 38993 ft 535 kts 135°
2026-05-04 00:56 19.73663 116.97696 39003 ft 534 kts 135°
2026-05-04 00:56 19.68618 117.03487 38998 ft 534 kts 135°
2026-05-04 00:57 19.63582 117.09294 38994 ft 534 kts 135°
2026-05-04 00:57 19.58583 117.15064 38990 ft 534 kts 135°
2026-05-04 00:58 19.53550 117.20865 38992 ft 534 kts 135°
2026-05-04 00:58 19.48514 117.26659 38988 ft 533 kts 135°
2026-05-04 00:59 19.43519 117.32398 38994 ft 533 kts 135°
2026-05-04 00:59 19.38492 117.38173 38990 ft 533 kts 135°
2026-05-04 01:00 19.33463 117.43945 38984 ft 532 kts 135°
2026-05-04 01:00 19.28444 117.49697 38993 ft 531 kts 135°
2026-05-04 01:01 19.23427 117.55442 38990 ft 531 kts 135°
2026-05-04 01:01 19.18420 117.61171 38996 ft 529 kts 135°
2026-05-04 01:02 19.13418 117.66890 38990 ft 529 kts 135°
2026-05-04 01:02 19.08451 117.72563 38986 ft 528 kts 135°
2026-05-04 01:03 19.03467 117.78255 38985 ft 527 kts 135°
2026-05-04 01:03 18.98485 117.83935 38981 ft 526 kts 135°
2026-05-04 01:04 18.93509 117.89595 38981 ft 525 kts 135°
2026-05-04 01:04 18.88542 117.95243 38978 ft 524 kts 135°
2026-05-04 01:05 18.83581 118.00882 38977 ft 523 kts 135°
2026-05-04 01:05 18.78654 118.06478 38984 ft 522 kts 135°
2026-05-04 01:06 18.73710 118.12087 38986 ft 522 kts 135°
2026-05-04 01:06 18.68756 118.17701 38981 ft 522 kts 135°
2026-05-04 01:07 18.63807 118.23303 38977 ft 522 kts 135°
2026-05-04 01:07 18.58885 118.28870 38973 ft 522 kts 135°
2026-05-04 01:08 18.53935 118.34465 38970 ft 522 kts 135°
2026-05-04 01:08 18.48981 118.40060 38973 ft 522 kts 135°
2026-05-04 01:09 18.44024 118.45651 38975 ft 522 kts 135°
2026-05-04 01:09 18.39069 118.51236 38975 ft 522 kts 135°
2026-05-04 01:10 18.34098 118.56834 38968 ft 522 kts 135°
2026-05-04 01:10 18.29130 118.62423 38965 ft 522 kts 135°
2026-05-04 01:11 18.24168 118.68002 38966 ft 522 kts 135°
2026-05-04 01:11 18.19202 118.73580 38981 ft 522 kts 135°
2026-05-04 01:12 18.14270 118.79113 38983 ft 521 kts 135°
2026-05-04 01:12 18.09303 118.84680 38981 ft 521 kts 135°
2026-05-04 01:13 18.04334 118.90248 38973 ft 521 kts 135°
2026-05-04 01:13 17.99374 118.95805 38971 ft 521 kts 135°
2026-05-04 01:14 17.95250 119.00417 38973 ft 521 kts 135°
2026-05-04 01:14 17.90275 119.05966 38979 ft 521 kts 135°
2026-05-04 01:15 17.85292 119.11488 38968 ft 521 kts 135°
2026-05-04 01:15 17.80327 119.17049 38973 ft 522 kts 135°
2026-05-04 01:16 17.75395 119.22564 38962 ft 521 kts 135°
2026-05-04 01:16 17.70419 119.28106 38959 ft 522 kts 135°
2026-05-04 01:17 17.65435 119.33645 38957 ft 522 kts 135°
2026-05-04 01:17 17.60457 119.39175 38957 ft 522 kts 135°
2026-05-04 01:18 17.55469 119.44714 38957 ft 522 kts 135°
2026-05-04 01:18 17.50486 119.50242 38950 ft 522 kts 135°
2026-05-04 01:19 17.45499 119.55769 38947 ft 522 kts 136°
2026-05-04 01:19 17.40511 119.61294 38943 ft 521 kts 136°
2026-05-04 01:20 17.35525 119.66810 38951 ft 522 kts 136°
2026-05-04 01:20 17.30566 119.72293 38947 ft 521 kts 136°
2026-05-04 01:21 17.25575 119.77805 38953 ft 521 kts 136°
2026-05-04 01:21 17.20588 119.83316 38942 ft 521 kts 136°
2026-05-04 01:22 17.15604 119.88810 38944 ft 520 kts 136°
2026-05-04 01:22 17.10617 119.94304 38940 ft 520 kts 136°
2026-05-04 01:23 17.05633 119.99788 38944 ft 520 kts 136°
2026-05-04 01:23 17.00684 120.05234 38942 ft 520 kts 136°
2026-05-04 01:24 16.95702 120.10709 38941 ft 519 kts 136°
2026-05-04 01:24 16.90726 120.16174 38949 ft 519 kts 136°
2026-05-04 01:25 16.85749 120.21638 38948 ft 519 kts 136°
2026-05-04 01:25 16.83284 120.24344 38650 ft 510 kts 136°
2026-05-04 01:25 16.80838 120.27028 37873 ft 511 kts 136°
2026-05-04 01:25 16.78374 120.29725 37174 ft 514 kts 136°
2026-05-04 01:26 16.75909 120.32404 36443 ft 509 kts 140°
2026-05-04 01:26 16.73093 120.34568 35775 ft 498 kts 155°
2026-05-04 01:26 16.69918 120.35881 35182 ft 487 kts 166°
2026-05-04 01:26 16.66664 120.36783 34588 ft 480 kts 172°
2026-05-04 01:27 16.63381 120.37282 34120 ft 474 kts 177°
2026-05-04 01:27 16.60128 120.37611 33660 ft 480 kts 178°
2026-05-04 01:27 16.56719 120.37914 33184 ft 503 kts 178°
2026-05-04 01:27 16.53199 120.38340 32699 ft 512 kts 174°
2026-05-04 01:28 16.49673 120.38898 32210 ft 511 kts 174°
2026-05-04 01:28 16.46158 120.39388 31730 ft 506 kts 175°
2026-05-04 01:28 16.42670 120.39784 31247 ft 502 kts 175°
2026-05-04 01:28 16.39221 120.40215 30776 ft 497 kts 175°
2026-05-04 01:29 16.35800 120.40670 30298 ft 494 kts 174°
2026-05-04 01:29 16.32375 120.41134 29816 ft 503 kts 174°
2026-05-04 01:29 16.28830 120.41612 29291 ft 522 kts 174°
2026-05-04 01:29 16.25212 120.42096 28749 ft 529 kts 174°
2026-05-04 01:30 16.21510 120.42586 28220 ft 539 kts 174°
2026-05-04 01:30 16.17854 120.43068 27694 ft 535 kts 174°
2026-05-04 01:30 16.14177 120.43556 27165 ft 531 kts 174°
2026-05-04 01:30 16.10524 120.44040 26655 ft 526 kts 173°
2026-05-04 01:31 16.06900 120.44518 26114 ft 522 kts 173°
2026-05-04 01:31 16.03315 120.44990 25601 ft 518 kts 173°
2026-05-04 01:31 15.99754 120.45462 25093 ft 514 kts 173°
2026-05-04 01:31 15.96212 120.45929 24600 ft 511 kts 173°
2026-05-04 01:32 15.92694 120.46390 24094 ft 508 kts 173°
2026-05-04 01:32 15.89200 120.46845 23587 ft 504 kts 173°
2026-05-04 01:32 15.85728 120.47299 22995 ft 500 kts 173°
2026-05-04 01:32 15.82291 120.47749 22397 ft 495 kts 173°
2026-05-04 01:33 15.78889 120.48193 21816 ft 491 kts 173°
2026-05-04 01:33 15.75517 120.48635 21189 ft 486 kts 173°
2026-05-04 01:33 15.72174 120.49076 20599 ft 481 kts 173°
2026-05-04 01:33 15.68866 120.49516 20015 ft 476 kts 172°
2026-05-04 01:34 15.65633 120.49944 19377 ft 472 kts 173°
2026-05-04 01:34 15.62393 120.50365 18717 ft 465 kts 173°
2026-05-04 01:34 15.59229 120.50777 18006 ft 451 kts 173°
2026-05-04 01:34 15.56152 120.51173 17298 ft 439 kts 172°
2026-05-04 01:35 15.53315 120.51535 16817 ft 424 kts 172°
2026-05-04 01:35 15.50430 120.51906 16335 ft 410 kts 172°
2026-05-04 01:35 15.47636 120.52270 15863 ft 399 kts 172°
2026-05-04 01:35 15.44918 120.52627 15396 ft 389 kts 172°
2026-05-04 01:36 15.42268 120.52972 14938 ft 380 kts 171°
2026-05-04 01:36 15.39668 120.53311 14483 ft 372 kts 171°
2026-05-04 01:36 15.37119 120.53643 14047 ft 366 kts 171°
2026-05-04 01:36 15.34613 120.53968 13585 ft 360 kts 171°
2026-05-04 01:37 15.32147 120.54289 13082 ft 355 kts 171°
2026-05-04 01:37 15.29735 120.54605 12595 ft 351 kts 171°
2026-05-04 01:37 15.27328 120.54919 12122 ft 347 kts 171°
2026-05-04 01:37 15.24942 120.55232 11693 ft 343 kts 171°
2026-05-04 01:38 15.22625 120.55534 11235 ft 323 kts 171°
2026-05-04 01:38 15.20473 120.55815 10718 ft 302 kts 171°
2026-05-04 01:38 15.18442 120.56050 10306 ft 283 kts 174°
2026-05-04 01:38 15.16509 120.56114 9893 ft 280 kts 180°
2026-05-04 01:39 15.14563 120.56039 9593 ft 280 kts 181°
2026-05-04 01:39 15.12614 120.55935 9169 ft 282 kts 180°
2026-05-04 01:39 15.10638 120.55893 8634 ft 286 kts 178°
2026-05-04 01:39 15.08655 120.55890 8208 ft 281 kts 179°
2026-05-04 01:40 15.06725 120.55835 7836 ft 274 kts 171°
2026-05-04 01:40 15.04890 120.56264 7458 ft 269 kts 170°
2026-05-04 01:40 15.03022 120.56317 7110 ft 267 kts 178°
2026-05-04 01:40 15.01215 120.56287 6910 ft 257 kts 178°
2026-05-04 01:41 14.99477 120.56154 6820 ft 248 kts 191°
2026-05-04 01:41 14.97986 120.55295 6678 ft 247 kts 224°
2026-05-04 01:41 14.97146 120.53806 6576 ft 237 kts 257°
2026-05-04 01:41 14.97167 120.52161 6408 ft 226 kts 289°
2026-05-04 01:42 14.97971 120.50839 6139 ft 213 kts 324°
2026-05-04 01:42 14.99233 120.50155 5642 ft 203 kts 348°
2026-05-04 01:42 15.00597 120.49838 5097 ft 199 kts 355°
2026-05-04 01:42 15.01964 120.49754 4531 ft 195 kts 13°
2026-05-04 01:43 15.03280 120.50007 4259 ft 189 kts 17°
2026-05-04 01:43 15.04496 120.50403 4072 ft 182 kts 25°
2026-05-04 01:43 15.05642 120.50907 3873 ft 173 kts 28°
2026-05-04 01:43 15.06717 120.51414 3611 ft 166 kts 28°
2026-05-04 01:44 15.07759 120.51883 3277 ft 159 kts 27°
2026-05-04 01:44 15.08772 120.52340 2962 ft 157 kts 27°
2026-05-04 01:44 15.09776 120.52769 2781 ft 156 kts 25°
2026-05-04 01:44 15.10784 120.53144 2656 ft 154 kts 24°
2026-05-04 01:45 15.11806 120.53513 2245 ft 155 kts 22°
2026-05-04 01:45 15.12818 120.53919 1799 ft 157 kts 25°
2026-05-04 01:45 15.14797 120.54738 1149 ft 150 kts 22°
2026-05-04 01:46 15.15757 120.55127 885 ft 148 kts 21°
2026-05-04 01:46 15.16733 120.55515 645 ft 151 kts 20°
2026-05-04 01:46 15.17723 120.55899 449 ft 149 kts 19°
2026-05-04 01:46 15.18506 120.56205 432 ft 85 kts 20°
2026-05-04 01:47 15.18886 120.56356 437 ft 41 kts 20°
2026-05-04 01:47 15.19051 120.56421 431 ft 16 kts 21°
2026-05-04 01:47 15.19112 120.56419 431 ft 7 kts 317°
2026-05-04 01:47 15.19135 120.56367 430 ft 8 kts 291°
2026-05-04 01:48 15.19155 120.56311 439 ft 10 kts 290°
2026-05-04 01:48 15.19186 120.56228 435 ft 13 kts 291°
2026-05-04 01:48 15.19177 120.56175 426 ft 5 kts 222°
2026-05-04 01:48 15.19122 120.56148 429 ft 11 kts 200°
2026-05-04 01:49 15.19088 120.56108 428 ft 6 kts 263°
2026-05-04 01:49 15.19106 120.56052 438 ft 11 kts 282°
2026-05-04 01:49 15.19065 120.56000 439 ft 13 kts 200°
2026-05-04 01:49 15.18951 120.55957 428 ft 22 kts 201°
2026-05-04 01:50 15.18774 120.55887 429 ft 32 kts 200°
2026-05-04 01:50 15.18562 120.55804 435 ft 32 kts 201°
2026-05-04 01:50 15.18367 120.55727 438 ft 26 kts 201°
2026-05-04 01:50 15.18272 120.55686 437 ft 3 kts 221°
2026-05-04 01:51 15.18272 120.55668 430 ft 3 kts 283°
2026-05-04 01:51 15.18295 120.55604 426 ft 16 kts 290°
2026-05-04 01:51 15.18344 120.55471 434 ft 21 kts 291°
2026-05-04 01:51 15.18393 120.55339 431 ft 19 kts 291°
2026-05-04 01:52 15.18438 120.55220 429 ft 17 kts 291°
2026-05-04 01:52 15.18476 120.55117 433 ft 11 kts 291°
2026-05-04 01:52 15.18486 120.55059 435 ft 4 kts 246°
2026-05-04 01:52 15.18449 120.55034 432 ft 10 kts 203°
2026-05-04 01:53 15.18380 120.55007 427 ft 10 kts 201°
2026-05-04 01:53 15.18317 120.54982 437 ft 10 kts 200°
2026-05-04 01:53 15.18256 120.54959 435 ft 8 kts 200°
2026-05-04 01:53 15.18224 120.54935 432 ft 3 kts 239°
2026-05-04 01:54 15.18223 120.54927 428 ft 1 kts 263°
2026-05-04 01:54 15.18227 120.54915 429 ft 1 kts 294°
2026-05-04 01:54 15.18233 120.54904 435 ft 3 kts 296°
2026-05-04 01:54 15.18244 120.54877 434 ft 4 kts 292°
2026-05-04 01:55 15.18252 120.54856 429 ft 3 kts 291°
2026-05-04 01:55 15.18257 120.54844 434 ft 1 kts 291°
2026-05-04 01:55 15.18258 120.54840 434 ft 0 kts 291°